Location: Ash Swamp
(41.5170°N, 74.6157°W)
Time: 17:24:21
(UTC+00:00)

Lacrosse 5 - Pass Details

Date: 14 July 2020
Orbit: 717 x 720 km, 57.0° (Epoch: 02 August)

Event Time Altitude Azimuth Distance (km) Brightness Sun altitude
Exits shadow 06:47:15 - 282° (WNW) 2,489 4.5 -22.5°
Reaches altitude 10° 06:48:14 10° 289° (WNW) 2,202 4.3 -22.5°
Maximum altitude 06:52:01 21° 338° (NNW) 1,604 4.1 -22.1°
Drops below altitude 10° 06:55:48 10° 26° (NNE) 2,207 5.5 -21.8°
Sets 06:58:46 0° 43° (NE) 3,130 6.5 -21.6°
